Location: Palomar Mountain Lodge
(33.3110°N, 116.8495°W)
Time: 20:41:30
(UTC-08:00)

Cosmos 1818 - Pass Details

Date: 19 May 2017
Orbit: 777 x 797 km, 65.0° (Epoch: 20 November)

Event Time Altitude Azimuth Distance (km) Brightness Sun altitude
Rises 20:45:20 0° 187° (S) 3,237 6.5 -12.1°
Reaches altitude 10° 20:47:51 10° 179° (S) 2,314 5.7 -12.5°
Maximum altitude 20:52:45 38° 112° (ESE) 1,163 4.0 -13.3°
Drops below altitude 10° 20:57:41 10° 45° (NE) 2,335 5.9 -14.2°
Sets 21:00:14 0° 38° (NE) 3,270 6.8 -14.6°
